Location: The Saddle
(36.8333°N, 80.3417°W)
Time: 09:34:19
(UTC-04:00)

A-11 Canister half - Pass Details

Date: 04 June 2024
Orbit: 1515 x 1685 km, 47.2° (Epoch: 17 June)

Event Time Altitude Azimuth Distance (km) Brightness Sun altitude
Rises 23:39:16 0° 237° (WSW) 4,886 11.6 -26.0°
Reaches altitude 10° 23:42:26 10° 238° (WSW) 3,883 11.0 -26.3°
Maximum altitude 23:52:23 84° 327° (NNW) 1,615 9.0 -27.1°
Drops below altitude 10° 00:02:00 10° 57° (ENE) 3,756 11.2 -27.8°
Sets 00:05:01 0° 58° (ENE) 4,722 11.7 -28.0°
